Regional Weather Roundup
Issued by NWS

Home | Current Version | Previous Version | Text Only | Print | Product List | Glossary Off
Versions: 1 2 3 4 5 6 7 8 9 10 11 12 13 14 15 16 17 18 19 20 21 22 23 24 25 26 27 28 29 30 31 32 33 34 35 36 37 38 39 40 41 42 43 44 45 46 47 48 49 50

000
ASUS45 KPSR 021110
RWRAZ

ARIZONA HOURLY REGIONAL WEATHER ROUNDUP
NATIONAL WEATHER SERVICE PHOENIX AZ
400 AM MST THU JUL 02 2015

NOTE: FAIR INDICATES FEW OR NO CLOUDS BELOW 12,000 FEET WITH NO
SIGNIFICANT WEATHER AND/OR OBSTRUCTIONS TO VISIBILITY.

AZZ001>003-036-021200-
NORTHWEST ARIZONA

CITY           SKY/WX    TMP DP  RH WIND       PRES   REMARKS
BULLHEAD CITY  CLOUDY    88  59  37 SW3       29.87R
KINGMAN        CLOUDY    74  63  68 CALM      30.06R
$$

AZZ004>008-015-016-018-021200-
NORTH CENTRAL ARIZONA

CITY           SKY/WX    TMP DP  RH WIND       PRES   REMARKS
GRAND CANYON     N/A    N/A N/A N/A MISG      30.28R
WILLIAMS       CLOUDY    63  55  77 S7        30.33F
PRESCOTT       MOCLDY    70  60  70 CALM      30.16S
FLAGSTAFF      CLOUDY    57  56  96 S3        30.30F
PAYSON         CLOUDY    72  55  56 CALM      30.18S
PAGE           CLOUDY    81  54  39 SW8       30.07R
$$

AZZ009>014-017-021200-
NORTHEAST ARIZONA

CITY           SKY/WX    TMP DP  RH WIND       PRES   REMARKS
WINSLOW        CLOUDY    65  60  84 CALM      30.14F
SAINT JOHNS    MOCLDY    63  57  81 S6        30.17F
WINDOW ROCK    CLOUDY    64  51  62 N12       30.25R
SHOW LOW       PTCLDY    57  50  77 SW6       30.24F
$$

AZZ023-021200-
GREATER PHOENIX AREA

CITY           SKY/WX    TMP DP  RH WIND       PRES   REMARKS
PHOENIX        MOCLDY    90  58  33 W12       29.88R
BUCKEYE        MOCLDY    81  57  44 W6        29.90R
LUKE AFB       MOCLDY    88  59  37 SW9       29.87S
DEER VALLEY    MOCLDY    85  58  39 SW5       29.90S
SCOTTSDALE     PTCLDY    86  57  37 W5        29.92S
$$

AZZ027-028-021200-
SOUTHWEST MARICOPA COUNTY AND PINAL COUNTY

CITY           SKY/WX    TMP DP  RH WIND       PRES   REMARKS
CASA GRANDE    CLEAR     81  61  50 CALM      29.92S
GILA BEND      FAIR      81  61  49 S6        29.89R
$$

AZZ503-504-507>509-021200-
SOUTHEAST ARIZONA

CITY           SKY/WX    TMP DP  RH WIND       PRES   REMARKS
TUCSON         CLEAR     75  65  70 CALM      30.02S
DAVIS-MONTHAN  CLEAR     74  65  74 S5        30.01S
NOGALES        CLEAR     65  61  87 NE3       30.09F
SIERRA VISTA   CLEAR     70  60  69 W13       30.14F
DOUGLAS        CLEAR     67  58  72 N7        30.09S
SAFFORD        CLEAR     78  58  49 NW10      29.98S
$$

AZZ020-021-025-026-031-021200-
SOUTHWEST ARIZONA

CITY           SKY/WX    TMP DP  RH WIND       PRES   REMARKS
YUMA           CLEAR     82  66  58 CALM      29.86R
$$

CAZ031-033-041-043-047-048-061-021200-
SOUTHERN CALIFORNIA

CITY           SKY/WX    TMP DP  RH WIND       PRES   REMARKS
DOWNTOWN L.A.  MOCLDY    69  61  75 CALM      29.93F
L.A. AIRPORT   MOCLDY    67  61  81 NW3       29.94F
SAN DIEGO      MOCLDY    72  65  78 SW3       29.95S
BURBANK        PTCLDY    73  58  59 CALM      29.95F
ONTARIO        MOCLDY    71  59  65 CALM      29.96S
RIVERSIDE      PTCLDY    71  61  70 CALM      29.96S
PALM SPRINGS   CLEAR     84  63  49 S5        29.88R
EL CENTRO NAS  CLEAR     81  66  60 S6        29.84S
IMPERIAL       CLEAR     81  67  62 SE3       29.82S
BLYTHE         MOCLDY    83  66  56 S10       29.85F
NEEDLES        CLOUDY    89  59  36 VRB5      29.87S
$$

NVZ020-UTZ003-021200-
SOUTHERN NEVADA-UTAH

CITY           SKY/WX    TMP DP  RH WIND       PRES   REMARKS
LAS VEGAS      CLOUDY    81  69  67 W9        29.90R THUNDER
SALT LAKE CITY MOCLDY    76  51  41 S5        30.02R
$$

NMZ009-TXZ055-021200-
NEW MEXICO-WEST TEXAS

CITY           SKY/WX    TMP DP  RH WIND       PRES   REMARKS
ALBUQUERQUE    MOCLDY    75  52  44 E8        30.13S
EL PASO        MOCLDY    78  52  40 CALM      29.98S
$$


........................KEY........................
SKY/WX - SKY CONDITION/WEATHER
TMP    - TEMPERATURE IN FAHRENHEIT
DP     - DEW POINT IN FAHRENHEIT
RH     - RELATIVE HUMIDITY IN PERCENT
WIND   - DIRECTION AND SPEED IN MILES PER HOUR (MPH)
VRB    - VARIABLE WIND DIRECTION
PRES   - MEAN SEA LEVEL PRESSURE IN INCHES OF MERCURY
         F - FALLING PRESSURE   R - RISING PRESSURE
         S - STEADY PRESSURE
VSB    - VISIBILITY IN MILES
HX     - HEAT INDEX IN FAHRENHEIT
WCI    - WIND CHILL INDEX IN FAHRENHEIT
TC     - TEMPERATURE IN CELSIUS WHICH IS ALSO KNOWN AS
         TEMPERATURE IN CENTIGRADE
AFB    - AIR FORCE BASE
         LUKE AFB IS LUKE AIR FORCE BASE
         DAVIS-MONTHAN IS DAVIS-MONTHAN AIR FORCE BASE
NAS    - NAVAL AIR STATION
         EL CENTRO NAS IS EL CENTRO NAVAL AIR STATION
N/A    - NOT AVAILABLE




USA.gov is the U.S. government's official web portal to all federal, state and local government web resources and services.